EDT,Max TemperatureF,Mean TemperatureF,Min TemperatureF,Max Dew PointF,MeanDew PointF,Min DewpointF,Max Humidity, Mean Humidity, Min Humidity, Max Sea Level PressureIn, Mean Sea Level PressureIn, Min Sea Level PressureIn, Max VisibilityMiles, Mean VisibilityMiles, Min VisibilityMiles, Max Wind SpeedMPH, Mean Wind SpeedMPH, Max Gust SpeedMPH,PrecipitationIn, CloudCover, Events, WindDirDegrees
2013-9-1,92,82,72,74,71,65,96,76,44,29.93,29.88,29.81,7,5,3,13,3,26,0.11,2,Rain,204
2013-9-2,88,79,70,75,72,69,97,83,55,29.93,29.87,29.83,7,4,2,6,1,,0.11,2,,226
2013-9-3,91,82,72,75,72,67,96,79,47,29.96,29.87,29.83,7,5,2,8,3,,0.00,2,,227
2013-9-4,88,76,64,72,66,62,97,74,42,30.09,30.04,29.96,7,4,1,7,1,,0.00,1,,344
2013-9-5,89,76,63,69,65,60,97,75,37,30.12,30.08,30.04,7,4,1,9,1,,0.00,0,,315
2013-9-6,86,72,59,63,59,54,97,69,34,30.18,30.12,30.08,10,7,1,9,2,16,0.00,0,,10
2013-9-7,85,72,59,66,61,58,96,73,39,30.15,30.08,29.99,10,9,5,6,0,,0.00,2,,260
2013-9-8,89,75,61,67,62,56,97,70,32,30.00,29.97,29.92,10,9,5,10,1,,0.00,0,,344
2013-9-9,91,76,62,70,63,57,97,68,32,30.15,30.08,30.00,10,8,0,10,1,,0.00,1,Fog,117
2013-9-10,91,78,65,74,65,57,97,70,31,30.25,30.20,30.15,10,8,0,8,1,,0.00,2,Fog,162
2013-9-11,91,77,63,68,64,55,97,68,31,30.23,30.17,30.09,10,8,3,8,1,,0.00,1,,182
2013-9-12,91,80,68,69,65,62,90,65,39,30.09,29.97,29.85,10,8,5,8,2,,0.00,3,,212
2013-9-13,88,78,67,68,60,50,94,59,28,29.90,29.82,29.78,10,9,3,10,2,21,0.00,2,,337
2013-9-14,80,70,58,57,50,45,88,53,32,30.13,30.02,29.90,10,10,10,13,6,20,0.00,2,,6
2013-9-15,83,70,56,65,58,54,93,71,42,30.23,30.16,30.11,10,10,10,6,1,,0.00,5,,92
2013-9-16,89,79,69,72,64,51,96,67,29,30.16,30.11,30.04,10,9,2,13,2,17,0.00,5,,335
2013-9-17,81,69,57,61,52,43,84,54,27,30.31,30.24,30.16,10,10,10,13,6,18,0.00,4,,29
2013-9-18,77,63,49,54,51,48,96,69,36,30.31,30.24,30.17,10,10,10,9,1,,0.00,1,,8
2013-9-19,81,66,52,61,55,51,96,72,39,30.21,30.16,30.10,10,10,7,7,0,,0.00,4,,329
2013-9-20,86,74,62,71,63,59,93,71,42,30.10,30.03,29.93,10,10,10,9,1,,0.00,6,Rain,181
2013-9-21,82,72,63,72,66,62,97,80,51,29.96,29.83,29.68,10,9,2,9,2,,0.85,4,Rain,171
2013-9-22,80,70,59,68,59,52,97,74,39,29.91,29.78,29.66,10,9,2,14,8,20,1.04,3,Rain,344
2013-9-23,76,64,52,59,54,50,97,76,42,30.08,30.02,29.91,10,9,4,8,1,,0.00,1,,355
2013-9-24,78,66,53,60,55,52,97,75,42,30.10,30.03,29.96,10,9,4,8,1,,0.00,3,,107
2013-9-25,73,64,55,62,58,54,97,84,50,29.96,29.91,29.88,10,8,3,9,1,,0.00,5,Rain,83
2013-9-26,79,68,57,63,56,45,97,71,30,30.03,29.94,29.88,10,8,3,13,2,18,0.00,3,,9
2013-9-27,77,63,49,59,53,48,98,75,38,30.18,30.11,30.04,10,10,7,13,2,18,0.00,1,,26
2013-9-28,74,60,47,55,50,46,97,73,37,30.25,30.20,30.16,10,10,1,16,3,22,0.00,0,,15
2013-9-29,74,62,49,57,52,47,97,75,37,30.18,30.12,30.04,10,10,7,9,1,,0.00,4,,358
2013-9-30,76,63,50,58,53,49,97,78,38,30.11,30.06,30.02,10,10,10,6,0,,0.00,2,,7